Regional Weather Roundup
Issued by NWS

Home | Current Version | Previous Version | Graphics & Text | Print | Product List | Glossary On
Versions: 1 2 3 4 5 6 7 8 9 10 11 12 13 14 15 16 17 18 19 20 21 22 23 24 25 26 27 28 29 30 31 32 33 34 35 36 37 38 39 40 41 42 43 44 45 46 47 48 49 50
023
ASUS44 KJAN 272110
RWRMS

MISSISSIPPI HOURLY WEATHER ROUNDUP
NATIONAL WEATHER SERVICE JACKSON MS
400 PM CDT FRI MAR 27 2015

NOTE: "FAIR: INDICATES FEW OR NO CLOUDS BELOW 12,000 FEET WITH NO
SIGNIFICANT WEATHER AND/OR OBSTRUCTIONS TO VISIBILITY.

MSZ001>002-007>008-010>013-018>021-025>028-034>036-272200-
NORTHWEST MISSISSIPPI

CITY           SKY/WX    TMP DP  RH WIND       PRES   REMARKS
CLARKSDALE     PTSUNNY   48  41  76 NW14G20   30.12F
CLEVELAND      CLOUDY    51  42  71 N20G26    30.11R
GREENWOOD      PTSUNNY   53  36  52 N14       30.09S
GREENVILLE     PTSUNNY   58  38  47 N20       30.08F
OLIVE BRANCH   PTSUNNY   46  37  71 N14G23    30.09S
OXFORD         PTSUNNY   46  36  66 NW14      30.10S
TUNICA         PTCLDY    46  41  81 NW10      30.13S
$$

MSZ003>006-009-014>017-022>024-029>033-037>039-272200-
NORTHEAST MISSISSIPPI

CITY           SKY/WX    TMP DP  RH WIND       PRES   REMARKS
COLUMBUS AFB   PTSUNNY   54  32  42 N15       30.03S
CORINTH        FAIR      48  37  66 NW10      30.03S
GOLDN TRIANGLE PTSUNNY   54  34  47 NW16G23   30.03F
STARKVILLE     CLOUDY    54  34  47 N9        30.04S
TUPELO         PTSUNNY   46  37  71 NW6       30.05S
$$

MSZ040-058-272200-
CENTRAL MISSISSIPPI

CITY           SKY/WX    TMP DP  RH WIND       PRES   REMARKS
JACKSON INTL   PTSUNNY   60  34  37 N13       30.05R
JACKSON HAWKNS PTSUNNY   58  33  39 N13       30.06S
MERIDIAN KEY   PTSUNNY   61  32  33 NW13G25   30.00F
MERIDIAN NAS   PTSUNNY   58  30  34 NW18      30.01S
RAYMOND        MOCLDY    59  55  88 NW10      30.05S
VICKSBURG      MOSUNNY   61  39  44 N10       30.06F
$$

MSZ059>079-272200-
SOUTH MISSISSIPPI

CITY           SKY/WX    TMP DP  RH WIND       PRES   REMARKS
BROOKHAVEN     FAIR      64  41  42 NW13      30.04S
HATTIESBURG    SUNNY     65  33  30 NW16G23   30.00F
MCCOMB         SUNNY     67  33  28 N14G24    30.01F
NATCHEZ        SUNNY     66  39  37 NW9       30.03F
PINE BELT      SUNNY     64  30  27 NW13G24   30.01S
$$

MSZ080>082-272200-
COASTAL MISSISSIPPI

CITY           SKY/WX    TMP DP  RH WIND       PRES   REMARKS
BAY ST LOUIS   SUNNY     70  25  18 NW12G17   29.99F
BILOXI         SUNNY     69  34  27 N14       29.97F
PASCAGOULA     SUNNY     69  30  23 NW13G22   29.96F
GULFPORT       SUNNY     69  32  25 NW14G28   29.97F
$$



USA.gov is the U.S. government's official web portal to all federal, state and local government web resources and services.